Date,TemperatureHighF,TemperatureAvgF,TemperatureLowF,DewpointHighF,DewpointAvgF,DewpointLowF,HumidityHigh,HumidityAvg,HumidityLow,PressureMaxIn,PressureMinIn,WindSpeedMaxMPH,WindSpeedAvgMPH,GustSpeedMaxMPH,PrecipitationSumIn
2013-3-1,45,37,27,32,29,26,97,74,57,29.83,29.66,9,2,16,0.00
2013-3-2,38,33,29,26,24,21,75,68,57,29.84,29.76,10,2,16,0.00
2013-3-3,36,31,27,21,20,17,71,63,53,29.84,29.74,10,3,20,0.00
2013-3-4,42,33,27,23,20,17,70,60,45,29.98,29.83,11,4,17,0.00
2013-3-5,48,37,30,28,25,22,73,61,45,30.06,29.97,11,2,12,0.00
2013-3-6,43,39,35,35,31,27,88,73,64,29.99,29.85,28,8,28,0.02
2013-3-7,43,38,32,33,29,25,93,71,56,30.12,29.98,13,4,18,0.01
2013-3-8,44,35,29,34,29,26,94,81,63,30.26,30.07,11,2,18,0.23
2013-3-9,58,42,29,28,24,18,86,54,21,30.35,30.24,9,1,12,0.00
2013-3-10,55,39,25,37,30,23,94,73,41,30.40,30.28,9,2,12,0.00
2013-3-11,57,45,35,48,40,32,98,85,56,30.35,30.08,8,1,11,0.00
2013-3-12,57,51,43,56,49,37,98,90,79,30.08,29.69,8,2,15,0.93
2013-3-13,48,41,31,37,30,24,94,67,43,29.94,29.83,9,2,14,0.00
2013-3-14,41,34,30,23,15,10,63,46,30,30.01,29.90,12,5,24,0.00
2013-3-15,46,37,27,32,22,12,65,54,43,30.03,29.75,9,2,13,0.00
2013-3-16,44,33,28,31,28,22,91,81,60,29.95,29.80,3,0,9,0.05
2013-3-17,37,32,27,30,22,18,94,68,48,30.34,29.96,6,1,13,0.01
2013-3-18,36,29,20,31,21,11,95,74,51,30.42,30.00,9,2,19,0.01
2013-3-19,48,38,32,37,32,19,97,81,47,29.98,29.72,12,2,21,0.53
2013-3-20,45,37,31,25,21,18,71,53,34,29.93,29.81,11,3,17,0.00
2013-3-21,38,32,28,29,19,13,91,59,36,29.87,29.67,12,2,12,0.00
2013-3-22,41,33,26,24,20,14,73,59,43,29.94,29.79,11,3,16,0.00
2013-3-23,45,37,31,24,21,19,66,53,38,29.98,29.88,9,3,17,0.01
2013-3-24,47,37,23,26,22,19,86,55,36,30.00,29.72,9,1,13,0.00
2013-3-25,38,36,33,35,31,26,95,82,62,29.73,29.51,7,1,13,0.20
2013-3-26,51,40,31,36,31,25,97,74,36,29.92,29.65,10,1,14,0.00
2013-3-27,52,39,27,34,28,24,92,68,35,30.05,29.91,11,2,13,0.00
2013-3-28,48,41,28,33,30,26,90,65,50,30.16,30.01,8,2,14,0.00
2013-3-29,53,44,30,33,30,26,86,59,40,30.19,30.11,9,2,14,0.00
2013-3-30,58,42,27,34,26,21,95,59,24,30.22,30.09,7,1,11,0.00
2013-3-31,57,42,28,43,34,24,97,75,39,30.16,29.73,12,1,16,0.24